Simultaneous Nadir Overpasses (SNOs) Predictions

Prediction of SNOs between GOES-16 and TERRA Satellite Orbit:

Table of predicted SNOs for the next 14.0 days since TLE Epoch: 5/7/2022
Index Date Time (GOES-16) GOES-16 Lat,Lon TERRA Lat,Lon Distance(km) Time Diff (sec)
1 05/07/2022 15:20:17 0.05, -75.20 0.09, -75.35 17.46 80
2 05/09/2022 15:10:41 0.05, -75.21 -0.52, -72.39 320.06 80
3 05/10/2022 03:32:05 -0.05, -75.21 -0.53, -77.60 271.34 80
4 05/12/2022 03:17:09 -0.04, -75.22 0.09, -74.64 67.15 80
5 05/14/2022 03:04:53 -0.04, -75.25 0.72, -71.68 406.17 80
6 05/14/2022 15:26:07 0.04, -75.26 0.39, -76.83 178.38 80
7 05/16/2022 15:16:31 0.04, -75.29 -0.26, -73.87 160.82 80
8 05/17/2022 03:37:54 -0.04, -75.28 -0.84, -79.07 430.08 80
9 05/18/2022 15:04:15 0.03, -75.31 -0.92, -70.92 499.98 80
10 05/19/2022 03:25:38 -0.03, -75.31 -0.18, -76.11 90.89 80
11 05/21/2022 03:10:41 -0.02, -75.33 0.43, -73.14 248.89 80
